Date,TemperatureHighF,TemperatureAvgF,TemperatureLowF,DewpointHighF,DewpointAvgF,DewpointLowF,HumidityHigh,HumidityAvg,HumidityLow,PressureMaxIn,PressureMinIn,WindSpeedMaxMPH,WindSpeedAvgMPH,GustSpeedMaxMPH,PrecipitationSumIn
2013-1-1,36.3,32.1,22.7,31.0,25.0,16.0,88,75,63,29.90,29.72,12,2,12,0.00
2013-1-2,31.5,22.7,14.3,19.1,13.8,7.3,80,69,57,30.07,29.88,10,2,10,0.01
2013-1-3,23.6,16.6,8.0,15.7,6.0,-0.1,85,63,47,30.13,30.01,8,1,8,0.00
2013-1-4,37.3,30.3,17.2,29.6,23.7,13.5,90,77,62,30.01,29.83,14,2,14,0.01
2013-1-5,42.5,33.0,23.3,27.7,24.0,20.4,90,71,48,30.25,29.87,9,2,9,0.01
2013-1-6,40.6,32.0,23.5,36.0,29.6,21.0,97,91,83,30.22,29.93,8,0,8,0.03
2013-1-7,40.3,32.0,23.6,32.7,28.3,22.4,97,87,69,30.40,29.96,13,1,13,0.00
2013-1-8,44.7,36.6,24.7,37.5,33.2,23.7,99,88,72,30.39,30.30,12,1,12,0.01
2013-1-9,46.1,37.8,26.1,43.6,35.4,25.3,99,91,77,30.38,30.01,10,1,11,0.00
2013-1-10,46.9,40.5,30.7,36.8,27.4,23.0,76,60,44,30.50,30.06,15,2,15,0.00
2013-1-11,43.3,35.9,27.8,37.8,31.3,24.2,97,83,69,30.49,30.21,5,0,5,0.11
2013-1-12,46.1,41.9,38.7,44.5,41.0,37.9,99,97,89,30.23,30.11,7,0,7,0.04
2013-1-13,52.2,47.5,42.7,52.2,47.4,42.4,100,99,98,30.16,30.02,8,1,9,0.10
2013-1-14,57.7,51.6,42.4,57.4,49.2,33.4,100,92,61,30.22,29.93,18,1,18,0.01
2013-1-15,41.9,38.6,36.8,38.1,35.8,33.0,98,90,81,30.27,30.17,7,0,7,0.13
2013-1-16,40.4,37.8,35.2,40.1,37.2,34.1,99,98,87,30.21,29.71,11,1,11,0.59
2013-1-17,42.9,37.0,31.7,35.4,32.0,25.8,99,83,64,30.06,29.84,10,1,10,0.00
2013-1-18,33.2,22.7,14.0,26.4,9.6,-1.2,95,60,31,30.46,29.98,14,2,14,0.01
2013-1-19,47.2,37.8,14.5,43.5,32.5,9.7,92,81,70,30.42,29.93,20,3,21,0.03
2013-1-20,50.6,44.9,30.0,45.7,36.0,13.8,93,72,43,29.93,29.58,18,4,19,0.00
2013-1-21,31.3,27.4,23.0,27.4,15.9,8.0,97,64,42,30.10,29.74,10,2,10,0.00
2013-1-22,28.0,22.1,14.0,27.0,11.9,0.7,96,67,38,30.06,29.70,12,2,13,0.05
2013-1-23,17.0,12.5,8.3,4.0,-2.3,-6.1,69,51,41,30.14,30.05,15,3,15,0.00
2013-1-24,19.5,12.2,4.9,-2.0,-4.8,-7.4,58,47,33,30.20,30.03,13,3,14,0.00
2013-1-25,25.1,17.1,9.1,14.1,0.7,-6.4,81,49,33,30.30,30.03,11,2,12,0.00
2013-1-26,26.2,19.2,13.1,15.3,8.9,-3.4,90,66,39,30.19,29.96,12,2,12,0.00
2013-1-27,31.4,20.6,13.5,7.3,4.3,0.9,66,50,33,30.45,30.19,12,2,12,0.00
2013-1-28,32.7,23.7,11.2,31.8,16.1,3.2,98,75,33,30.44,29.96,7,0,8,0.01
2013-1-29,36.6,34.2,32.1,36.3,33.7,31.6,99,98,96,30.18,29.96,7,0,7,0.03
2013-1-30,60.5,50.1,36.5,57.9,49.1,36.2,100,97,90,30.15,29.55,26,4,26,0.05
2013-1-31,58.3,48.0,32.5,57.7,40.8,15.9,99,77,49,29.60,29.06,34,5,34,0.41
2013-2-1,32.9,29.4,23.1,18.6,12.7,8.2,63,50,38,30.08,29.60,13,3,15,0.00
2013-2-2,31.1,25.7,17.6,26.2,13.9,6.3,93,61,42,30.25,30.04,12,2,12,0.00
2013-2-3,33.7,26.8,22.0,27.2,23.1,19.8,93,86,70,30.04,29.67,9,2,9,0.03
2013-2-4,31.7,26.0,22.1,22.1,14.2,9.1,91,62,40,29.94,29.69,13,3,13,0.00
2013-2-5,29.7,25.1,22.7,28.7,19.3,12.2,96,79,62,30.02,29.90,8,1,8,0.00
2013-2-6,40.6,32.4,27.6,32.0,25.2,10.4,98,77,47,30.27,29.89,9,1,10,0.04
2013-2-7,29.4,25.1,19.7,23.7,11.6,4.7,83,57,36,30.51,30.27,10,2,10,0.00
2013-2-8,33.3,31.7,28.4,32.3,29.3,23.3,99,91,81,30.46,29.31,21,4,21,0.00
2013-2-12,45.9,40.2,30.4,32.3,29.2,26.1,84,65,53,29.88,29.70,8,3,14,0.01
2013-2-13,42.7,33.6,28.7,28.6,26.4,23.9,91,76,53,29.87,29.64,7,1,7,0.00
2013-2-14,41.0,33.3,26.8,34.7,28.6,24.4,98,84,53,30.02,29.67,10,1,10,0.19
2013-2-15,48.4,36.0,26.1,39.7,32.5,25.4,99,88,57,30.04,29.93,16,1,16,0.01
2013-2-16,37.5,33.0,29.2,33.9,31.8,28.5,99,96,84,29.94,29.58,16,2,17,0.09
2013-2-17,34.1,24.2,18.9,32.3,18.0,4.8,95,79,45,29.64,29.29,20,5,21,0.00
2013-2-18,32.2,23.6,15.8,9.3,5.5,3.4,60,47,30,30.16,29.63,17,4,19,0.01
2013-2-19,48.1,36.9,22.5,44.8,30.0,9.2,99,77,50,30.16,29.57,12,2,14,0.79
2013-2-20,42.3,33.7,26.1,41.9,24.0,11.6,99,70,45,29.77,29.54,16,3,16,0.00
2013-2-21,34.6,28.8,24.9,20.1,16.6,14.7,72,61,46,30.11,29.77,13,3,13,0.00
2013-2-22,37.0,32.7,28.3,29.3,25.7,19.8,85,75,64,30.35,30.10,12,2,14,0.00
2013-2-23,39.3,35.1,30.2,37.7,31.8,27.6,98,88,76,30.32,29.82,12,1,12,0.30
2013-2-24,42.7,38.1,32.3,42.4,37.7,31.8,99,98,97,29.82,29.57,14,3,18,0.81
2013-2-25,39.6,33.1,28.0,34.0,30.2,27.1,99,90,65,30.23,29.82,11,1,11,0.11
2013-2-26,45.1,34.4,23.6,35.5,28.9,22.9,99,82,53,30.33,30.11,11,1,13,0.00
2013-2-27,44.0,42.3,38.6,43.7,41.5,34.9,99,97,86,30.12,29.53,26,4,26,0.96
2013-2-28,46.8,39.8,34.8,41.4,38.3,34.4,100,95,78,29.63,29.49,7,1,7,0.01
2013-3-1,41.0,37.1,34.6,36.9,34.1,32.1,99,89,74,29.65,29.48,9,1,10,0.00
2013-3-2,42.7,37.0,33.8,32.1,30.8,28.8,89,78,63,29.66,29.60,9,1,9,0.00
2013-3-3,40.9,35.9,32.9,31.6,29.8,27.8,91,79,66,29.62,29.54,7,1,8,0.00
2013-3-4,41.1,35.2,29.6,30.6,26.6,23.8,94,72,53,29.69,29.55,13,3,15,0.00
2013-3-5,42.4,36.1,30.9,36.1,30.7,24.8,98,81,69,30.03,29.69,14,2,14,0.00
2013-3-6,40.6,37.3,31.7,36.7,35.2,30.9,99,92,81,30.04,29.90,26,6,26,0.07
2013-3-7,36.7,35.1,33.4,35.3,34.2,32.7,98,97,93,29.90,29.83,28,8,28,1.46
2013-3-8,40.6,36.0,32.6,35.4,33.4,31.4,99,91,73,30.04,29.81,24,6,24,0.69
2013-3-9,38.8,36.3,34.1,33.0,32.2,31.3,93,85,76,30.30,30.04,22,4,23,0.00
2013-3-10,42.5,37.2,32.4,35.0,32.7,30.1,94,84,72,30.38,30.30,9,2,13,0.00
2013-3-11,51.2,41.0,34.2,43.9,37.9,32.1,96,89,74,30.33,30.15,12,1,12,0.00
2013-3-12,52.7,48.5,41.7,51.9,47.3,40.8,100,96,88,30.17,29.74,21,3,21,0.96
2013-3-13,53.2,46.0,35.1,52.9,37.6,23.9,100,75,47,29.77,29.67,11,2,12,0.22
2013-3-14,36.9,31.9,24.6,27.0,19.8,7.5,88,62,43,29.80,29.68,13,3,15,0.00
2013-3-15,39.4,30.6,21.9,29.2,16.9,8.0,78,58,33,29.86,29.65,17,3,17,0.00
2013-3-16,38.7,33.8,27.1,29.2,22.6,12.9,87,65,36,29.86,29.67,10,1,11,0.00
2013-3-17,40.7,32.4,26.3,29.7,19.1,8.4,92,61,34,30.28,29.85,10,1,11,0.00
2013-3-18,37.1,29.9,19.8,26.1,16.7,5.8,75,58,48,30.44,30.22,9,1,9,0.00
2013-3-19,43.6,36.4,30.7,43.3,35.4,25.9,99,97,74,30.22,29.46,18,4,18,0.74
2013-3-20,42.2,33.7,27.5,31.7,25.0,20.5,96,72,44,29.82,29.62,14,3,14,0.00
2013-3-21,39.6,32.0,26.5,30.2,27.6,24.0,97,85,60,29.82,29.57,15,2,16,0.00
2013-3-22,40.6,32.9,26.9,29.9,26.1,20.6,98,78,50,29.73,29.57,11,2,11,0.18
2013-3-23,44.1,36.4,29.5,27.5,22.6,19.0,79,59,38,29.75,29.62,16,4,16,0.00
2013-3-24,45.6,36.6,28.8,28.7,25.2,21.7,90,64,48,29.82,29.72,11,2,12,0.00
2013-3-25,45.4,37.1,28.1,36.4,31.2,26.0,96,80,56,29.75,29.42,24,4,30,0.00
2013-3-26,47.4,39.0,33.2,33.9,30.1,24.6,94,72,43,29.74,29.42,15,2,15,0.01
2013-3-27,53.4,42.2,30.5,36.4,28.0,22.4,88,59,36,29.82,29.72,10,2,11,0.00
2013-3-28,47.4,40.4,36.8,39.2,35.1,30.8,97,82,55,29.99,29.82,15,2,15,0.07
2013-3-29,55.7,44.1,35.1,39.9,35.9,31.6,90,74,51,30.02,29.97,7,1,9,0.00
2013-3-30,53.5,43.9,30.7,36.4,33.5,27.7,93,69,42,30.08,30.01,10,1,10,0.00
2013-3-31,57.7,43.0,27.1,43.6,33.3,26.0,99,73,36,30.12,29.72,14,2,14,0.10
2013-4-1,57.7,47.1,36.3,47.1,42.0,17.9,99,84,44,29.77,29.54,16,3,19,0.37
2013-4-2,42.6,35.7,29.5,24.7,16.9,9.7,61,47,30,29.95,29.77,13,3,14,0.00
2013-4-3,46.4,37.5,31.0,18.4,16.0,12.9,56,42,27,30.14,29.93,15,4,16,0.00
2013-4-4,47.4,37.9,28.1,34.4,22.8,16.1,86,56,36,30.29,30.08,12,3,14,0.00
2013-4-5,54.4,43.1,38.2,45.2,38.4,30.8,96,84,66,30.09,29.63,10,1,13,0.04
2013-4-6,44.7,37.2,29.4,30.9,20.0,7.2,86,53,22,30.32,29.82,12,2,13,0.00
2013-4-7,51.9,40.6,26.6,43.8,32.7,24.6,98,76,37,30.33,30.04,20,2,20,0.00
2013-4-8,62.9,51.7,43.4,47.8,44.1,39.5,93,77,52,30.10,29.96,11,2,13,0.00
2013-4-9,72.7,53.6,45.5,55.3,47.8,39.7,99,82,52,30.09,29.83,11,2,14,0.10
2013-4-10,58.4,50.1,44.5,48.9,45.7,42.7,98,85,68,30.02,29.84,11,2,11,0.26
2013-4-11,48.7,45.4,43.9,44.9,40.6,33.7,99,84,64,30.11,29.78,8,1,9,0.04
2013-4-12,44.1,41.4,37.4,41.3,36.7,30.2,99,84,63,30.14,29.66,18,4,18,0.88
2013-4-13,46.0,40.0,37.3,40.8,38.5,36.3,99,95,81,29.94,29.66,15,2,17,0.03
2013-4-14,55.4,46.3,37.2,44.8,36.6,28.7,100,72,43,30.19,29.93,11,1,12,0.00
2013-4-15,53.4,43.9,35.0,40.1,35.6,28.8,95,73,56,30.41,30.18,10,1,10,0.00
2013-4-16,58.4,48.1,34.1,49.6,42.2,33.3,99,81,60,30.42,30.12,16,3,18,0.00
2013-4-17,61.6,52.0,37.9,52.8,43.4,34.1,99,76,37,30.32,30.08,11,2,13,0.01
2013-4-18,58.4,47.7,34.2,47.6,38.2,32.6,98,73,41,30.41,30.16,15,2,15,0.00
2013-4-19,72.4,61.6,50.5,64.8,59.3,47.9,99,92,76,30.17,29.73,27,4,28,0.02
2013-4-20,64.0,52.6,41.5,63.2,49.2,36.2,99,89,68,30.18,29.66,26,3,30,0.51
2013-4-21,47.2,41.0,31.0,36.1,28.2,24.3,88,61,46,30.66,30.18,13,2,13,0.01
2013-4-22,51.4,41.1,29.6,37.9,32.6,27.2,96,74,44,30.71,30.53,15,3,15,0.00
2013-4-23,44.4,42.7,40.3,43.7,41.6,34.9,99,96,81,30.54,29.98,19,4,19,0.68
2013-4-24,60.1,48.9,42.4,51.3,45.8,42.0,99,90,68,29.98,29.83,16,3,17,0.24
2013-4-25,62.3,51.8,39.6,54.7,46.2,38.6,97,83,46,30.23,29.89,18,2,18,0.03
2013-4-26,62.4,49.3,35.3,43.4,39.7,34.5,99,73,42,30.39,30.23,9,1,9,0.00
2013-4-27,61.4,48.6,35.5,45.3,36.8,31.6,99,69,36,30.40,30.31,8,1,8,0.00
2013-4-28,65.2,51.0,36.6,47.2,40.2,35.0,99,71,34,30.34,30.25,11,1,11,0.00
2013-4-29,65.8,51.3,40.4,48.5,37.9,23.1,100,68,22,30.28,30.22,11,1,13,0.00
2013-4-30,65.2,50.2,36.7,44.7,35.8,27.4,98,65,29,30.34,30.23,9,1,10,0.00
2013-5-1,63.9,50.1,37.3,50.6,43.7,35.1,99,80,53,30.46,30.34,10,1,10,0.00
2013-5-2,71.3,53.1,38.4,49.5,41.5,35.8,100,72,29,30.44,30.35,11,1,11,0.00
2013-5-3,50.6,45.3,37.9,45.3,41.8,37.1,98,88,78,30.45,30.33,15,2,16,0.00
2013-5-4,53.1,46.2,37.4,43.8,40.8,36.6,99,82,65,30.33,30.29,17,2,17,0.00
2013-5-5,56.8,48.2,39.6,45.9,42.8,38.3,97,83,62,30.29,30.24,11,2,11,0.00
2013-5-6,66.2,51.4,42.9,54.2,47.1,42.3,99,87,59,30.27,30.16,7,1,8,0.00
2013-5-7,72.4,58.2,44.8,61.8,54.5,44.3,100,88,68,30.18,30.12,9,1,10,0.00
2013-5-8,72.2,61.2,53.2,64.8,58.6,52.4,100,92,75,30.19,30.02,10,1,10,0.06
2013-5-9,69.0,60.2,53.3,64.4,58.5,52.8,100,95,82,30.03,29.86,9,1,9,0.16
2013-5-10,78.8,63.3,53.4,61.3,56.3,53.1,100,81,46,29.95,29.86,8,1,8,0.00
2013-5-11,67.0,60.8,53.9,62.6,59.0,52.8,100,94,78,29.94,29.70,17,2,17,0.86
2013-5-12,65.4,58.8,46.5,60.8,55.2,38.1,100,89,57,29.79,29.58,12,1,12,0.15
2013-5-13,58.7,50.1,37.5,41.1,37.4,30.8,94,64,43,29.98,29.79,12,1,12,0.00
2013-5-14,56.2,49.5,41.6,43.3,37.2,30.9,81,63,44,30.03,29.96,10,1,10,0.00
2013-5-15,63.7,51.7,36.5,56.2,43.8,34.6,98,77,38,30.05,29.68,18,2,19,0.01
2013-5-16,76.3,61.3,48.0,55.1,50.9,46.0,100,72,35,29.77,29.64,8,1,9,0.00
2013-5-17,63.6,56.7,46.7,50.2,45.8,42.3,92,69,48,30.20,29.76,10,1,10,0.00
2013-5-18,70.5,55.9,42.0,52.5,48.2,40.9,99,78,42,30.29,30.19,9,1,9,0.00
2013-5-19,69.8,58.5,46.8,55.1,50.7,46.3,99,78,49,30.34,30.22,9,1,9,0.11
2013-5-20,72.2,62.0,55.7,65.7,60.0,55.1,100,94,79,30.22,29.92,8,1,9,0.35
2013-5-21,79.8,63.2,53.1,70.1,60.5,52.8,100,92,71,29.94,29.84,10,1,10,0.02
2013-5-22,67.2,59.0,51.3,63.4,57.7,51.0,100,96,86,29.95,29.88,8,1,8,0.01
2013-5-23,71.3,64.9,60.5,68.2,63.9,60.1,100,97,88,29.93,29.84,16,2,19,0.25
2013-5-24,64.7,61.7,52.5,64.7,61.7,52.4,100,100,99,29.84,29.65,23,2,23,1.14
2013-5-25,53.4,49.8,42.5,52.6,49.3,41.4,100,98,91,29.72,29.64,12,1,12,0.19
2013-5-26,58.3,48.6,40.5,45.3,41.3,38.5,96,77,53,30.08,29.70,10,2,11,0.01
2013-5-27,69.3,56.4,44.9,49.3,44.9,35.0,93,68,30,30.15,30.06,13,1,13,0.00
2013-5-28,72.7,58.8,43.0,58.2,50.1,42.1,100,76,43,30.22,30.14,9,0,9,0.00
2013-5-29,66.0,59.7,56.3,63.7,58.8,55.9,100,97,90,30.20,30.00,14,1,14,0.70
2013-5-30,85.8,69.3,59.4,74.2,65.0,59.3,100,87,64,30.07,29.99,8,1,8,0.18
2013-5-31,91.0,73.2,57.9,72.5,64.4,57.3,100,77,48,30.07,29.95,10,1,10,0.00
2013-6-1,82.8,69.5,59.4,70.9,64.2,58.5,98,84,62,29.97,29.90,11,1,13,0.00
2013-6-2,78.4,68.3,62.7,69.7,64.5,61.2,98,88,70,29.92,29.80,14,2,17,0.01
2013-6-3,65.8,63.7,61.4,65.8,63.6,61.4,100,100,97,29.84,29.76,11,1,11,2.17
2013-6-4,70.3,60.7,51.9,61.9,51.6,46.3,100,74,48,30.04,29.76,6,1,6,0.00
2013-6-5,70.3,58.9,46.4,52.7,49.5,45.3,99,74,46,30.16,30.04,9,0,9,0.00
2013-6-6,72.8,60.9,49.6,57.9,53.6,48.6,99,79,47,30.18,30.05,8,0,8,0.00
2013-6-7,66.5,58.4,56.6,66.4,57.3,53.1,100,96,83,30.07,29.72,23,1,23,1.79
2013-6-8,71.0,64.9,58.3,67.6,63.0,58.3,100,94,77,29.97,29.52,17,2,19,0.40
2013-6-9,78.0,66.8,58.5,63.2,60.0,56.9,100,81,56,30.13,29.97,8,1,8,0.00
2013-6-10,73.3,62.8,56.6,63.5,59.4,55.8,99,89,67,30.16,29.95,8,0,8,0.73
2013-6-11,74.0,64.6,55.2,69.8,63.5,54.6,100,96,80,29.95,29.50,12,1,12,1.41
2013-6-12,70.4,61.6,54.4,58.9,56.9,54.1,100,85,62,29.76,29.53,9,1,9,0.00
2013-6-13,66.6,58.4,52.9,60.8,55.6,52.1,98,91,72,29.79,29.57,8,0,11,0.23
2013-6-14,62.1,55.7,51.8,58.1,53.2,51.1,99,92,71,29.72,29.51,14,2,14,0.96
2013-6-15,77.6,65.8,54.5,59.3,54.4,47.0,100,70,37,29.92,29.71,9,1,9,0.00
2013-6-16,77.2,65.8,55.2,63.2,58.7,52.0,100,80,46,29.92,29.73,12,1,12,0.00
2013-6-17,80.5,69.6,60.8,67.8,63.8,59.6,97,83,61,29.89,29.75,10,1,10,0.00
2013-6-18,79.7,66.0,58.3,68.3,61.9,57.7,100,88,66,29.89,29.81,7,0,7,0.02
2013-6-19,70.3,62.4,55.7,59.5,55.4,49.8,98,80,55,30.12,29.80,9,1,9,0.02
2013-6-20,76.5,63.9,51.7,61.9,55.8,50.6,100,77,50,30.25,30.12,10,1,10,0.00
2013-6-21,75.9,65.2,53.0,61.1,55.2,51.4,98,72,52,30.25,30.19,8,1,8,0.00
2013-6-22,78.8,67.8,59.5,63.5,59.7,53.1,97,77,49,30.22,30.13,9,1,10,0.00
2013-6-23,80.6,71.1,63.1,69.7,66.7,62.2,99,87,66,30.15,30.02,13,1,13,0.00
2013-6-24,85.0,74.3,67.6,76.2,70.4,66.1,100,89,72,30.03,29.85,6,1,8,0.00
2013-6-25,86.9,74.9,66.8,72.2,68.7,65.1,96,82,59,29.88,29.72,7,1,8,0.00
2013-6-26,87.0,75.5,67.0,76.0,70.6,66.1,99,86,66,29.80,29.69,9,0,9,0.00
2013-6-27,79.4,69.3,65.9,72.9,67.8,65.5,100,95,78,29.81,29.71,7,0,7,0.00
2013-6-28,71.6,69.4,67.8,71.6,69.4,67.5,100,100,99,29.72,29.52,13,2,13,0.74
2013-6-29,75.5,70.4,67.8,72.1,69.7,67.5,100,98,86,29.73,29.51,14,1,14,1.25
2013-6-30,74.6,71.0,68.7,72.1,69.8,68.5,100,96,84,29.94,29.72,11,1,11,0.11
2013-7-1,77.3,72.1,69.2,74.9,71.6,69.2,100,98,91,30.08,29.93,10,1,11,0.60
2013-7-2,78.6,73.5,70.3,75.7,72.4,69.5,100,96,89,30.18,30.08,9,1,10,0.05
2013-7-3,80.7,73.8,70.2,75.2,72.0,70.0,100,94,82,30.20,30.15,8,1,12,0.00
2013-7-4,84.0,75.3,70.2,77.7,73.2,70.2,100,94,78,30.19,30.10,10,1,10,0.00
2013-7-5,86.3,76.8,70.1,78.7,73.3,69.8,99,89,74,30.14,30.03,8,1,8,0.00
2013-7-6,87.6,77.9,70.3,79.4,74.0,69.7,99,88,74,30.06,29.93,7,0,8,0.00
2013-7-7,90.8,77.9,70.1,79.0,73.4,69.8,100,87,65,29.98,29.88,5,0,6,0.00
2013-7-8,85.0,76.3,69.9,76.3,72.1,69.2,100,88,73,30.00,29.88,9,1,12,0.00
2013-7-9,74.1,70.1,67.1,70.7,68.6,66.7,100,95,88,30.06,29.98,5,0,5,0.00
2013-7-10,82.2,74.9,69.7,76.0,73.5,69.1,100,95,79,30.03,29.79,11,1,14,0.20
2013-7-11,74.8,72.8,70.3,73.6,72.4,69.4,100,99,93,29.87,29.77,9,0,9,0.09
2013-7-12,70.5,68.4,65.9,70.5,67.3,64.2,100,96,88,30.13,29.86,7,1,8,0.00
2013-7-13,81.6,71.3,66.0,75.7,70.0,65.7,100,96,80,30.27,30.13,5,0,5,0.01
2013-7-14,86.2,76.7,70.6,78.8,74.3,70.6,100,93,76,30.26,30.16,4,0,7,0.01
2013-7-15,91.7,80.0,71.7,78.4,74.5,70.8,100,85,56,30.16,30.06,2,0,3,0.00
2013-7-16,88.4,78.6,70.7,73.6,71.5,68.7,99,80,60,30.12,30.04,6,0,7,0.00
2013-7-17,89.7,77.4,68.1,75.9,71.0,67.0,100,82,57,30.14,30.00,7,0,7,0.00
2013-7-18,89.2,79.5,72.8,78.2,74.0,71.4,97,85,63,30.01,29.92,6,0,8,0.00
2013-7-19,89.6,80.1,72.8,80.4,76.4,72.2,100,89,70,29.92,29.73,12,1,15,0.00
2013-7-20,86.4,78.7,72.5,77.8,75.2,70.3,97,90,73,29.76,29.63,10,1,10,0.00
2013-7-21,84.1,74.4,69.1,74.3,70.8,68.0,99,89,69,29.95,29.76,4,0,5,0.00
2013-7-22,82.0,73.3,68.4,73.5,70.0,67.7,99,90,66,29.96,29.84,7,0,7,0.00
2013-7-23,82.5,76.0,71.3,77.4,74.4,71.0,100,95,82,29.84,29.52,12,1,15,0.04
2013-7-24,87.0,76.9,69.4,75.9,72.2,65.7,100,86,65,29.86,29.54,7,0,7,0.00
2013-7-25,69.3,64.4,62.0,65.5,61.3,59.3,98,90,81,30.00,29.86,9,1,10,0.07
2013-7-26,66.8,64.9,62.6,66.8,64.8,62.1,100,100,98,29.98,29.83,10,1,10,0.57
2013-7-27,82.6,71.7,63.7,71.8,67.7,63.7,100,88,60,30.03,29.97,7,0,7,0.01
2013-7-28,79.3,72.5,67.4,76.6,71.1,66.7,100,95,86,29.99,29.90,5,0,5,0.18
2013-7-29,82.5,73.3,65.6,75.5,70.8,65.0,100,92,76,30.00,29.94,9,0,9,0.00
2013-7-30,81.7,71.4,64.0,69.7,66.0,63.0,100,85,56,30.05,29.98,3,0,5,0.00
2013-7-31,81.2,69.6,60.8,69.0,63.1,59.3,97,81,53,30.08,30.02,6,0,6,0.00
2013-8-1,80.0,70.0,61.9,69.7,65.2,61.3,100,86,59,30.03,29.86,7,0,10,0.02
2013-8-2,80.3,70.2,64.4,74.1,67.7,63.7,100,93,74,29.86,29.76,6,0,7,1.03
2013-8-3,73.0,69.2,65.3,69.0,67.1,64.7,100,93,80,29.86,29.76,8,1,8,0.01
2013-8-4,80.0,68.1,59.4,67.7,62.0,56.3,98,82,55,29.83,29.73,8,0,8,0.03
2013-8-5,75.0,63.8,55.7,60.1,56.0,50.3,97,78,45,30.00,29.83,4,0,5,0.01
2013-8-6,78.8,64.3,51.5,63.3,56.6,50.5,100,79,49,30.13,29.99,6,0,6,0.00
2013-8-7,77.7,65.3,54.4,64.3,57.1,53.7,100,78,47,30.16,30.11,11,0,12,0.00
2013-8-8,79.2,70.5,59.6,71.7,66.5,55.6,96,88,72,30.11,30.01,10,1,12,0.01
2013-8-9,74.5,72.5,69.8,73.7,71.7,69.5,100,97,93,30.04,29.76,15,2,15,0.56
2013-8-10,84.0,72.9,62.6,71.6,67.6,58.7,100,85,54,29.96,29.76,8,1,8,0.00
2013-8-11,80.0,67.4,57.2,63.1,58.3,54.8,98,75,49,30.04,29.95,5,0,5,0.00
2013-8-12,78.0,68.2,59.0,71.0,64.9,58.2,100,90,73,30.01,29.89,8,0,8,0.00
2013-8-13,71.4,68.0,65.4,69.9,67.4,65.1,100,98,91,29.90,29.65,4,0,4,0.08
2013-8-14,74.0,66.6,61.6,65.3,59.0,54.1,100,78,53,29.91,29.62,7,1,8,0.00
2013-8-15,76.8,65.0,55.0,59.1,55.3,50.3,93,73,45,30.09,29.91,5,0,8,0.00
2013-8-16,79.5,67.1,55.7,63.0,58.3,52.8,100,76,43,30.17,30.07,6,0,6,0.00
2013-8-17,77.7,67.0,56.7,66.2,61.7,55.8,99,84,61,30.24,30.16,5,0,5,0.00
2013-8-18,75.7,66.0,58.8,67.7,62.4,58.0,100,89,63,30.24,30.04,4,0,4,0.07
2013-8-19,79.5,67.8,57.0,68.9,63.8,56.7,100,88,63,30.05,29.92,4,0,4,0.00
2013-8-20,85.4,72.4,63.6,71.7,66.6,63.3,100,84,56,30.06,29.94,5,0,5,0.05
2013-8-21,86.7,73.0,61.6,71.2,66.3,61.3,100,82,54,30.11,30.01,6,0,6,0.00
2013-8-22,80.0,72.8,68.5,74.3,70.5,67.3,100,93,81,30.02,29.81,8,1,8,0.00
2013-8-23,75.1,69.6,60.0,70.2,63.8,57.8,99,83,59,30.05,29.78,10,1,10,0.00
2013-8-24,72.2,63.7,51.4,60.5,55.6,49.3,95,77,49,30.29,30.05,9,1,9,0.00
2013-8-25,83.3,65.1,49.9,61.4,55.4,47.4,100,75,39,30.33,30.18,5,0,5,0.00
2013-8-26,74.8,69.3,61.0,67.9,65.1,58.8,96,87,73,30.18,29.86,9,1,10,0.00
2013-8-27,71.5,69.0,66.4,71.4,68.6,66.2,100,99,96,29.86,29.80,3,0,4,0.34
2013-8-28,77.6,68.5,64.6,71.3,67.0,64.4,100,95,79,29.90,29.81,5,0,5,0.00
2013-8-29,66.5,64.4,59.5,65.9,63.4,58.1,100,97,91,30.00,29.89,9,1,9,0.00
2013-8-30,72.9,65.5,57.6,68.6,63.6,56.8,99,94,85,29.97,29.82,7,0,7,0.00
2013-8-31,73.8,71.0,68.0,71.3,69.9,67.7,99,96,91,29.83,29.80,7,1,10,0.00
2013-9-1,76.1,72.4,69.9,74.5,71.8,69.5,100,98,93,29.86,29.79,9,1,9,0.23
2013-9-2,80.8,73.2,71.2,76.4,72.6,71.2,100,98,86,29.85,29.69,8,0,10,0.07
2013-9-3,80.2,71.0,65.6,75.7,70.2,65.2,100,98,81,29.78,29.65,9,0,10,0.02
2013-9-4,78.0,67.0,58.8,67.3,63.1,58.8,100,88,63,29.89,29.76,6,0,7,0.03
2013-9-5,69.8,62.1,52.0,68.0,60.2,51.3,100,94,82,30.07,29.84,7,0,7,0.01
2013-9-6,69.0,57.3,49.3,56.4,52.3,48.4,99,85,58,30.19,30.07,6,0,6,0.02
2013-9-7,72.5,60.9,48.0,59.4,54.6,47.5,100,81,58,30.08,29.85,9,1,9,0.00
2013-9-8,76.5,66.1,54.2,66.9,58.8,45.1,98,78,58,30.04,29.71,9,1,9,0.01
2013-9-9,69.0,57.4,46.6,54.5,49.7,44.6,97,77,51,30.21,30.03,6,0,8,0.01
2013-9-10,72.8,65.3,55.4,68.5,61.8,53.8,97,89,74,30.16,30.03,12,1,13,0.01
2013-9-11,86.3,74.6,68.7,77.7,71.5,68.1,99,91,74,30.07,29.96,9,1,9,0.00
2013-9-12,80.6,73.1,69.1,74.2,70.7,68.5,99,92,80,29.99,29.67,15,1,15,0.01
2013-9-13,75.6,69.7,61.3,71.6,68.0,59.9,100,94,83,29.69,29.53,7,0,11,0.61
2013-9-14,70.0,62.3,54.1,61.6,58.2,51.8,96,87,70,30.01,29.69,3,0,4,0.00
2013-9-15,70.8,58.8,50.8,56.9,53.1,49.8,97,83,58,30.13,30.01,6,0,6,0.00
2013-9-16,63.1,58.6,53.9,60.4,55.7,46.8,99,90,72,30.15,29.99,5,0,5,0.01
2013-9-17,58.3,51.9,41.1,48.4,43.7,39.8,95,74,57,30.35,30.15,14,1,14,0.00
2013-9-18,73.2,56.0,40.3,52.9,47.1,39.1,97,75,41,30.30,30.12,4,0,4,0.00
2013-9-19,76.3,62.2,52.2,60.5,55.8,51.1,98,82,48,30.13,30.02,5,0,5,0.00
2013-9-20,80.0,62.6,50.8,63.4,56.0,50.0,100,82,47,30.06,29.99,6,0,6,0.00
2013-9-21,75.9,65.2,54.4,67.0,61.8,53.8,100,90,67,30.02,29.74,14,1,14,0.01
2013-9-22,70.7,65.3,52.1,68.4,62.4,49.3,99,90,78,29.76,29.62,12,1,15,0.23
2013-9-23,63.7,52.8,44.3,50.8,46.8,42.5,95,81,57,29.95,29.76,5,0,6,0.00
2013-9-24,63.9,51.6,42.4,51.1,45.8,40.3,94,82,60,29.95,29.79,4,0,4,0.00
2013-9-25,64.5,54.1,45.1,53.0,48.9,44.0,98,84,59,29.94,29.85,6,0,7,0.00
2013-9-26,61.7,55.1,49.5,52.2,50.5,48.0,96,85,69,30.07,29.94,7,0,8,0.00
2013-9-27,62.1,56.5,48.5,56.2,53.1,47.4,97,89,77,30.22,30.07,10,0,10,0.00
2013-9-28,69.3,56.7,46.3,60.9,53.7,45.5,100,90,73,30.28,30.21,5,0,6,0.00
2013-9-29,67.8,55.6,44.4,57.4,52.2,43.6,100,89,67,30.23,30.06,5,0,5,0.00
2013-9-30,64.8,58.4,49.9,58.9,55.8,48.8,99,92,79,30.06,29.93,7,0,7,0.00
2013-10-1,74.3,57.9,49.2,58.2,52.8,48.7,99,86,54,29.93,29.83,8,0,8,0.00
2013-10-2,77.2,69.3,55.6,65.4,62.2,55.3,100,79,64,29.92,29.80,9,1,9,0.00
2013-10-3,80.0,64.5,54.6,60.5,55.9,48.6,96,76,36,30.05,29.92,8,0,8,0.00
2013-10-4,72.4,58.3,51.0,62.7,55.9,50.2,100,92,67,30.05,29.99,6,0,6,0.00
2013-10-5,66.3,60.5,55.4,62.9,59.1,54.6,100,95,85,30.09,30.02,3,0,3,0.08
2013-10-6,61.9,58.6,56.0,61.2,57.8,55.4,100,97,83,30.17,30.08,6,0,6,0.11
2013-10-7,73.4,68.6,61.9,71.6,67.7,61.3,100,97,91,30.09,29.83,15,2,15,0.46
2013-10-8,67.1,57.3,46.9,66.6,51.8,45.8,99,83,61,30.31,29.86,9,0,9,0.05
2013-10-9,60.9,54.0,46.8,50.7,47.5,44.2,97,79,65,30.40,30.31,13,1,13,0.00
2013-10-10,65.2,57.1,47.8,58.8,54.6,46.3,97,92,79,30.31,30.10,10,1,10,0.00
2013-10-11,65.5,58.9,52.6,60.5,57.1,51.5,98,94,82,30.10,30.05,8,1,8,0.00
2013-10-12,65.0,57.7,52.5,59.4,54.7,50.5,97,90,81,30.33,30.08,10,1,11,0.00
2013-10-13,60.7,53.1,41.8,50.6,47.7,40.1,95,83,66,30.39,30.30,9,1,9,0.00
2013-10-14,64.8,49.2,38.9,52.8,45.4,38.1,100,88,61,30.37,30.25,5,0,5,0.00
2013-10-15,68.3,53.3,42.7,56.5,49.1,41.9,100,87,60,30.25,30.14,5,0,5,0.00
2013-10-16,59.2,55.5,49.7,58.9,55.1,49.1,100,99,97,30.14,29.87,7,0,7,0.00
2013-10-17,69.7,60.9,55.9,63.5,59.3,55.8,100,95,81,29.89,29.73,6,0,6,0.00
2013-10-18,68.9,61.3,46.7,63.1,55.7,45.1,99,84,54,29.90,29.62,11,1,11,0.03
2013-10-19,65.0,54.0,43.1,53.7,47.3,40.8,95,79,52,29.98,29.75,6,0,7,0.00
2013-10-20,61.9,54.4,40.1,56.8,45.1,36.9,99,74,41,30.00,29.68,7,1,8,0.01
2013-10-21,66.0,50.3,38.0,48.4,42.5,36.2,97,77,43,30.11,30.00,6,0,8,0.00
2013-10-22,66.1,55.4,45.6,56.4,51.0,44.2,100,86,64,30.01,29.69,8,0,9,0.00
2013-10-23,52.8,45.8,38.0,46.6,41.2,35.3,98,84,66,29.77,29.56,3,0,3,0.08
2013-10-24,51.8,44.8,37.4,41.4,35.5,29.6,99,72,45,29.88,29.61,9,1,9,0.01
2013-10-25,52.6,42.6,31.9,37.2,33.1,29.0,91,70,50,30.15,29.88,6,1,6,0.00
2013-10-26,55.9,45.1,30.4,44.9,37.1,28.8,98,75,55,30.16,29.87,13,1,14,0.00
2013-10-27,57.6,50.4,40.0,45.4,37.8,32.3,89,63,49,30.05,29.80,7,1,7,0.00
2013-10-28,57.7,45.9,31.9,44.4,36.5,29.8,96,71,49,30.30,30.05,9,1,10,0.00
2013-10-29,52.4,42.5,35.6,39.6,35.4,29.3,94,76,58,30.39,30.30,7,0,7,0.00
2013-10-30,55.1,43.9,34.0,49.4,41.8,32.7,98,93,78,30.35,30.19,4,0,6,0.01
2013-10-31,64.9,54.3,39.7,62.1,52.0,38.9,100,92,78,30.23,29.86,14,1,17,0.01
2013-11-1,70.5,64.6,59.8,66.5,62.1,57.6,98,91,84,29.86,29.53,25,3,25,0.05
2013-11-2,62.7,56.4,51.8,58.1,53.7,50.3,98,91,69,29.70,29.57,4,0,4,0.01
2013-11-3,53.4,44.4,35.9,50.1,40.3,25.5,98,86,66,30.33,29.68,10,1,11,0.04
2013-11-4,42.7,39.1,33.1,32.6,28.9,26.4,86,67,55,30.68,30.33,14,1,14,0.00
2013-11-5,51.3,39.6,33.6,36.5,32.9,27.5,95,78,56,30.69,30.52,6,0,6,0.00
2013-11-6,58.9,48.0,36.6,52.7,45.1,35.4,99,90,65,30.52,30.07,14,0,14,0.00
2013-11-7,61.6,55.3,42.6,61.4,54.7,38.6,100,98,87,30.07,29.65,16,2,16,1.08
2013-11-8,48.7,41.4,35.1,38.6,31.4,25.0,87,68,50,30.08,29.78,9,2,9,0.00
2013-11-9,44.2,38.0,32.9,35.2,28.4,24.3,88,69,47,30.19,30.06,7,1,8,0.00
2013-11-10,55.7,46.8,38.4,48.4,41.6,35.0,96,83,65,30.06,29.71,8,1,8,0.17
2013-11-11,52.8,45.4,39.2,46.0,35.4,29.8,79,68,47,30.08,29.85,11,2,11,0.00
2013-11-12,52.7,37.0,27.0,46.9,33.4,23.4,98,87,66,30.15,29.86,8,1,8,0.16
2013-11-13,36.4,29.4,22.9,23.8,19.9,16.7,87,68,48,30.26,30.15,7,1,7,0.01
2013-11-14,49.1,42.2,30.2,36.8,30.1,21.4,82,63,38,30.20,30.05,9,2,10,0.00
2013-11-15,57.6,49.5,40.2,48.0,41.9,32.6,96,76,50,30.21,30.13,11,1,15,0.00
2013-11-16,60.6,47.3,37.8,45.5,40.3,34.2,97,79,42,30.32,30.20,10,0,10,0.00
2013-11-17,59.1,49.3,36.9,57.9,47.6,36.1,100,95,71,30.31,29.87,9,1,9,0.16
2013-11-18,62.9,57.0,45.0,62.9,53.6,40.1,100,89,65,29.87,29.56,26,2,26,0.38
2013-11-19,47.7,40.5,30.7,39.9,27.3,21.0,83,60,42,30.26,29.65,13,2,13,0.00
2013-11-20,38.9,32.6,27.2,25.3,20.3,17.3,72,61,50,30.59,30.25,12,1,12,0.00
2013-11-21,49.7,36.0,25.3,35.4,28.7,19.3,93,76,54,30.62,30.39,6,0,6,0.00
2013-11-22,52.8,46.0,36.9,52.5,44.9,34.2,99,96,90,30.39,29.81,9,0,10,0.24
2013-11-23,48.9,42.9,31.7,48.6,31.2,15.3,99,65,36,29.86,29.76,12,2,13,0.00
2013-11-24,31.6,25.5,22.0,19.5,7.2,-3.6,64,46,28,30.17,29.77,16,5,18,0.00
2013-11-25,31.5,23.9,18.0,26.0,5.8,-1.5,89,48,24,30.38,30.17,11,2,14,0.00
2013-11-26,47.1,41.1,29.3,46.7,34.6,26.4,99,78,60,30.33,30.04,8,1,10,0.13
2013-11-27,61.2,53.5,39.3,61.2,53.2,37.7,100,99,94,30.04,29.14,25,3,28,1.69
2013-11-28,39.3,32.6,25.5,37.7,21.6,13.1,94,65,48,30.43,29.45,12,3,14,0.00
2013-11-29,35.7,28.5,22.5,18.4,15.6,11.4,73,59,45,30.71,30.43,9,1,9,0.00
2013-11-30,37.0,27.5,19.5,30.2,19.6,11.9,91,73,49,30.75,30.45,7,1,7,0.00
2013-12-1,47.7,43.4,34.9,47.2,40.6,30.1,99,90,80,30.45,29.95,10,1,10,0.00
2013-12-2,46.4,40.7,38.9,46.0,39.8,37.3,100,97,91,29.97,29.88,5,0,5,0.00
2013-12-3,43.7,39.1,34.4,39.8,37.4,32.9,97,94,84,29.91,29.80,10,1,12,0.00
2013-12-4,44.8,34.9,28.7,34.0,30.9,27.7,98,86,61,30.19,29.91,5,1,7,0.01
2013-12-5,55.4,44.8,29.8,55.1,43.9,29.0,100,97,91,30.20,29.93,9,1,10,0.01
2013-12-6,57.8,50.0,37.9,57.8,49.7,36.8,100,99,93,30.10,29.87,12,1,14,0.24
2013-12-7,40.6,34.9,28.5,37.4,31.5,21.9,99,88,69,30.44,30.03,8,1,8,0.30
2013-12-8,32.7,29.3,23.8,25.1,21.9,18.2,86,74,64,30.58,30.43,7,1,7,0.00
2013-12-9,45.5,38.3,31.2,45.4,37.4,24.7,100,97,74,30.46,29.85,12,2,13,0.48
2013-12-10,36.6,31.9,25.0,36.1,31.4,22.7,99,98,90,30.00,29.77,5,0,6,0.03
2013-12-11,32.7,27.8,23.6,25.9,22.8,20.7,95,82,67,30.24,30.00,8,2,8,0.08
2013-12-12,28.4,21.8,12.7,21.2,12.3,3.4,86,68,39,30.26,30.09,10,1,10,0.01
2013-12-13,31.4,24.7,18.2,17.3,14.4,11.0,82,65,49,30.34,30.01,11,2,11,0.00
2013-12-14,31.6,22.8,16.3,31.1,18.3,8.2,98,83,69,30.56,30.11,12,2,12,0.00
2013-12-15,49.9,35.7,27.1,49.8,34.5,23.7,100,95,79,30.11,29.30,19,3,20,1.48
2013-12-16,30.5,26.2,16.1,25.8,16.1,9.4,94,67,43,30.21,29.76,12,2,12,0.00
2013-12-17,38.1,24.2,13.1,37.7,20.1,8.1,99,85,58,30.26,29.84,12,1,12,0.16
2013-12-18,34.3,29.9,21.3,33.8,25.3,20.3,99,84,63,30.10,29.75,13,2,13,0.03
2013-12-19,44.6,35.7,26.0,38.2,30.1,22.8,90,80,71,30.13,29.97,14,1,14,0.03
2013-12-20,53.6,42.4,31.2,47.2,38.9,29.6,98,88,68,30.14,29.96,14,1,14,0.01
2013-12-21,57.2,53.2,47.9,54.9,50.9,46.8,98,92,83,30.02,29.91,14,2,18,0.00
2013-12-22,59.6,53.9,43.7,58.9,53.4,42.9,100,98,89,30.00,29.83,16,3,17,0.00
2013-12-23,47.8,41.9,36.4,47.3,41.6,36.1,100,99,96,30.04,29.92,8,1,8,0.35
2013-12-24,39.5,33.4,28.1,39.5,29.2,20.5,100,85,67,30.18,29.98,11,1,11,0.06
2013-12-25,28.0,21.5,18.9,22.4,12.6,6.2,81,68,56,30.55,30.17,10,2,13,0.00
2013-12-26,39.7,30.9,18.9,36.8,28.3,13.2,98,90,77,30.50,30.05,12,1,12,0.12
2013-12-27,36.0,29.0,23.8,26.7,23.6,21.3,92,81,58,30.28,30.19,8,1,8,0.00
2013-12-28,46.6,35.1,23.8,37.6,31.1,21.7,98,86,68,30.25,30.02,7,1,15,0.00
2013-12-29,56.2,42.2,31.6,56.2,41.1,30.8,100,96,84,30.06,29.27,25,1,25,0.99
2013-12-30,41.4,35.1,24.7,40.3,29.7,17.1,100,82,58,30.11,29.43,9,2,11,0.01
2013-12-31,28.1,22.6,17.6,19.7,13.4,7.5,91,68,50,30.18,30.03,8,1,8,0.00
2014-1-1,29.5,23.7,18.2,18.1,12.9,8.7,84,64,47,30.38,30.18,11,1,11,0.00
2014-1-2,31.5,27.4,24.4,30.7,25.6,13.8,97,93,63,30.34,29.65,22,4,23,0.00